Location: Audinghen
(50.8518°N, 1.6129°E)
Time: 07:37:06
(UTC+00:00)

Sich 1 Rocket - Pass Details

Date: 07 August 2020
Orbit: 617 x 651 km, 82.5° (Epoch: 26 September)

Event Time Altitude Azimuth Distance (km) Brightness Sun altitude
Exits shadow 00:48:36 67° 180° (S) 677 3.4 -21.9°
Maximum altitude 00:49:11 86° 101° (E) 630 3.5 -21.9°
Drops below altitude 10° 00:53:37 10° 11° (N) 1,997 7.3 -21.8°
Sets 00:55:51 0° 11° (N) 2,906 8.5 -21.7°
